Tracking 19827 objects as of 21-Aug-2019
HD Live streaming from Space Station
objects crossing your sky now

COSMOS 1141

Track COSMOS 1141 now!
10-day predictions
COSMOS 1141 is classified as:


NORAD ID: 11585
Int'l Code: 1979-090A
Perigee: 961.3 km
Apogee: 1,002.4 km
Inclination: 82.9 °
Period: 104.6 minutes
Semi major axis: 7352 km
RCS: 2.1289 m2 (large)
Launch date: October 16, 1979
Source: Commonwealth of Independent States (former USSR) (CIS)
Launch site: PLESETSK MISSILE AND SPACE COMPLEX (PKMTR)
aabbcc
Your satellite tracking list
Your tracking list is empty




NASA's NSSDC Master Catalog

Two Line Element Set (TLE):
1 11585U 79090A   19233.12288230  .00000010  00000-0 -53055-5 0  9994
2 11585  82.9459 241.8070 0027931 272.8825 151.2212 13.76943708  1910
Source of the keplerian elements: AFSPC